^^
Saratoga-Weather Station Historical Data
Daily Summary for August 31, 2020 Units:  Metric    English   Both
Daily Weekly Monthly Yearly Custom
  High: Low: Average:
Temperature: 37.8 °C 15.3 °C 26.5 °C
Dew Point: 15.1 °C 9 °C 11.5 °C
Humidity: 71% 20% 43%
Wind Speed: 14.5km/h 0km/h 1.6km/h
Wind Gust: 16.1km/h - -
Wind- - ESE
Pressure: 1015.9 hPa 1011.2 hPa -
Precipitation: 0.0 mm    
Historical Graphs
 
 
Tabular Data for August 31, 2020
Time Temperature Dew Point Pressure Wind Wind Speed Wind Gust Humidity Rainfall Rate (Hourly) solar
00:01 20.4 °C 9.6 °C 1015.6 hPa Calm     50% 0.0 mm 0 W/m2
00:06 20.3 °C 9.8 °C 1015.6 hPa Calm     51% 0.0 mm 0 W/m2
00:11 20.2 °C 9.7 °C 1015.6 hPa Calm     51% 0.0 mm 0 W/m2
00:16 19.9 °C 9.5 °C 1015.9 hPa Calm     51% 0.0 mm 0 W/m2
00:21 19.8 °C 9.4 °C 1015.9 hPa Calm     51% 0.0 mm 0 W/m2
00:26 19.7 °C 9.6 °C 1015.9 hPa Calm     52% 0.0 mm 0 W/m2
00:31 19.6 °C 9.5 °C 1015.9 hPa Calm     52% 0.0 mm 0 W/m2
00:36 19.4 °C 9.6 °C 1015.9 hPa Calm   1.6 km/h 53% 0.0 mm 0 W/m2
00:41 19.3 °C 9.5 °C 1015.9 hPa Calm     53% 0.0 mm 0 W/m2
00:47 19.2 °C 9.7 °C 1015.9 hPa Calm     54% 0.0 mm 0 W/m2
00:52 19.1 °C 9.6 °C 1015.9 hPa Calm     54% 0.0 mm 0 W/m2
00:57 19 °C 9.5 °C 1015.9 hPa Calm     54% 0.0 mm 0 W/m2
01:02 18.8 °C 9 °C 1015.9 hPa Calm     53% 0.0 mm 0 W/m2
01:07 18.7 °C 9.2 °C 1015.9 hPa Calm     54% 0.0 mm 0 W/m2
01:12 18.6 °C 9.1 °C 1015.9 hPa Calm     54% 0.0 mm 0 W/m2
01:17 18.5 °C 9.3 °C 1015.9 hPa Calm     55% 0.0 mm 0 W/m2
01:22 18.4 °C 9.5 °C 1015.9 hPa Calm   1.6 km/h 56% 0.0 mm 0 W/m2
01:27 18.3 °C 9.1 °C 1015.9 hPa Calm     55% 0.0 mm 0 W/m2
01:32 18.3 °C 9.4 °C 1015.9 hPa Calm     56% 0.0 mm 0 W/m2
01:37 18.2 °C 9.3 °C 1015.9 hPa Calm     56% 0.0 mm 0 W/m2
01:42 18.2 °C 9.3 °C 1015.9 hPa Calm     56% 0.0 mm 0 W/m2
01:47 18.1 °C 9.2 °C 1015.9 hPa Calm   1.6 km/h 56% 0.0 mm 0 W/m2
01:52 18.1 °C 9.7 °C 1015.9 hPa Calm     58% 0.0 mm 0 W/m2
01:57 18 °C 9.6 °C 1015.9 hPa Calm   1.6 km/h 58% 0.0 mm 0 W/m2
02:02 17.9 °C 9.5 °C 1015.9 hPa Calm     58% 0.0 mm 0 W/m2
02:07 17.9 °C 9.5 °C 1015.9 hPa Calm     58% 0.0 mm 0 W/m2
02:12 17.9 °C 9.3 °C 1015.9 hPa WSW 1.4 km/h 1.6 km/h 57% 0.0 mm 0 W/m2
02:17 17.8 °C 9.2 °C 1015.9 hPa WSW 1.4 km/h 3.2 km/h 57% 0.0 mm 0 W/m2
02:22 17.9 °C 9.3 °C 1015.9 hPa WSW 1.4 km/h 3.2 km/h 57% 0.0 mm 0 W/m2
02:27 17.9 °C 9.5 °C 1015.9 hPa WSW 3.2 km/h 3.2 km/h 58% 0.0 mm 0 W/m2
02:32 17.9 °C 9.5 °C 1015.9 hPa Calm     58% 0.0 mm 0 W/m2
02:37 17.9 °C 9.3 °C 1015.6 hPa Calm     57% 0.0 mm 0 W/m2
02:42 17.9 °C 9.5 °C 1015.9 hPa Calm     58% 0.0 mm 0 W/m2
02:47 17.9 °C 9.5 °C 1015.6 hPa Calm     58% 0.0 mm 0 W/m2
02:52 17.8 °C 9.4 °C 1015.6 hPa Calm     58% 0.0 mm 0 W/m2
02:57 17.8 °C 9.4 °C 1015.6 hPa Calm     58% 0.0 mm 0 W/m2
03:02 17.8 °C 9.7 °C 1015.6 hPa Calm     59% 0.0 mm 0 W/m2
03:07 17.8 °C 9.7 °C 1015.9 hPa Calm     59% 0.0 mm 0 W/m2
03:12 17.7 °C 9.6 °C 1015.9 hPa Calm     59% 0.0 mm 0 W/m2
03:18 17.6 °C 9.5 °C 1015.9 hPa Calm     59% 0.0 mm 0 W/m2
03:23 17.6 °C 9.7 °C 1015.9 hPa Calm     60% 0.0 mm 0 W/m2
03:28 17.4 °C 9.6 °C 1015.9 hPa Calm     60% 0.0 mm 0 W/m2
03:33 17.3 °C 9.5 °C 1015.9 hPa Calm     60% 0.0 mm 0 W/m2
03:38 17.2 °C 9.4 °C 1015.9 hPa Calm     60% 0.0 mm 0 W/m2
03:43 17.1 °C 9.5 °C 1015.9 hPa Calm     61% 0.0 mm 0 W/m2
03:48 17 °C 9.7 °C 1015.9 hPa Calm     62% 0.0 mm 0 W/m2
03:53 16.8 °C 9.5 °C 1015.9 hPa Calm     62% 0.0 mm 0 W/m2
03:58 16.7 °C 9.4 °C 1015.6 hPa Calm     62% 0.0 mm 0 W/m2
04:03 16.7 °C 9.6 °C 1015.6 hPa Calm     63% 0.0 mm 0 W/m2
04:08 16.6 °C 9.5 °C 1015.6 hPa Calm     63% 0.0 mm 0 W/m2
04:13 16.6 °C 9.5 °C 1015.6 hPa WSW 1.4 km/h 1.6 km/h 63% 0.0 mm 0 W/m2
04:18 16.7 °C 9.6 °C 1015.6 hPa Calm     63% 0.0 mm 0 W/m2
04:23 16.7 °C 9.6 °C 1015.6 hPa Calm     63% 0.0 mm 0 W/m2
04:28 16.6 °C 9.8 °C 1015.6 hPa Calm     64% 0.0 mm 0 W/m2
04:33 16.6 °C 9.8 °C 1015.6 hPa Calm     64% 0.0 mm 0 W/m2
04:38 16.5 °C 9.7 °C 1015.6 hPa Calm     64% 0.0 mm 0 W/m2
04:43 16.4 °C 9.6 °C 1015.6 hPa Calm   3.2 km/h 64% 0.0 mm 0 W/m2
04:48 16.5 °C 9.7 °C 1015.6 hPa Calm     64% 0.0 mm 0 W/m2
04:53 16.4 °C 9.6 °C 1015.6 hPa WSW 1.4 km/h 3.2 km/h 64% 0.0 mm 0 W/m2
04:58 16.6 °C 9.8 °C 1015.6 hPa Calm     64% 0.0 mm 0 W/m2
05:03 16.5 °C 9.7 °C 1015.6 hPa Calm     64% 0.0 mm 0 W/m2
05:08 16.4 °C 9.6 °C 1015.2 hPa Calm     64% 0.0 mm 0 W/m2
05:13 16.4 °C 9.8 °C 1015.6 hPa Calm   1.6 km/h 65% 0.0 mm 0 W/m2
05:18 16.4 °C 9.8 °C 1015.6 hPa Calm     65% 0.0 mm 0 W/m2
05:23 16.3 °C 9.7 °C 1015.6 hPa Calm     65% 0.0 mm 0 W/m2
05:28 16.3 °C 9.7 °C 1015.6 hPa Calm   1.6 km/h 65% 0.0 mm 0 W/m2
05:33 16.2 °C 9.8 °C 1015.6 hPa Calm   1.6 km/h 66% 0.0 mm 0 W/m2
05:38 16.2 °C 9.8 °C 1015.2 hPa Calm     66% 0.0 mm 0 W/m2
05:43 16.1 °C 9.7 °C 1015.2 hPa Calm   1.6 km/h 66% 0.0 mm 0 W/m2
05:48 16 °C 9.7 °C 1015.2 hPa Calm     66% 0.0 mm 0 W/m2
05:53 15.9 °C 9.8 °C 1015.2 hPa Calm     67% 0.0 mm 0 W/m2
05:58 15.8 °C 9.7 °C 1015.2 hPa Calm     67% 0.0 mm 0 W/m2
06:03 15.8 °C 9.9 °C 1015.2 hPa Calm   1.6 km/h 68% 0.0 mm 0 W/m2
06:08 15.7 °C 9.8 °C 1015.2 hPa Calm     68% 0.0 mm 0 W/m2
06:13 15.6 °C 9.7 °C 1015.2 hPa Calm   1.6 km/h 68% 0.0 mm 5 W/m2
06:18 15.5 °C 9.6 °C 1015.6 hPa Calm     68% 0.0 mm 7 W/m2
06:23 15.4 °C 9.7 °C 1015.6 hPa Calm     69% 0.0 mm 9 W/m2
06:28 15.3 °C 9.9 °C 1015.6 hPa Calm     70% 0.0 mm 11 W/m2
06:33 15.3 °C 9.9 °C 1015.6 hPa Calm     70% 0.0 mm 12 W/m2
06:38 15.3 °C 9.9 °C 1015.6 hPa WSW 1.4 km/h 1.6 km/h 70% 0.0 mm 14 W/m2
06:43 15.3 °C 9.9 °C 1015.6 hPa Calm     70% 0.0 mm 16 W/m2
06:48 15.3 °C 10.1 °C 1015.6 hPa Calm     71% 0.0 mm 18 W/m2
06:53 15.4 °C 10 °C 1015.6 hPa Calm     70% 0.0 mm 19 W/m2
06:58 15.4 °C 10 °C 1015.6 hPa Calm     70% 0.0 mm 21 W/m2
07:03 15.5 °C 10.1 °C 1015.6 hPa Calm     70% 0.0 mm 21 W/m2
07:08 15.6 °C 10.4 °C 1015.6 hPa Calm     71% 0.0 mm 23 W/m2
07:13 15.7 °C 10.5 °C 1015.6 hPa WSW 1.4 km/h 1.6 km/h 71% 0.0 mm 25 W/m2
07:18 15.9 °C 10.2 °C 1015.6 hPa WSW 1.4 km/h 1.6 km/h 69% 0.0 mm 25 W/m2
07:23 16.2 °C 10.1 °C 1015.6 hPa WSW 3.2 km/h 3.2 km/h 67% 0.0 mm 25 W/m2
07:28 16.6 °C 10.2 °C 1015.6 hPa Calm     66% 0.0 mm 26 W/m2
07:33 16.8 °C 10.4 °C 1015.6 hPa Calm   3.2 km/h 66% 0.0 mm 26 W/m2
07:38 17.1 °C 10.7 °C 1015.6 hPa Calm     66% 0.0 mm 28 W/m2
07:43 17.3 °C 10.7 °C 1015.6 hPa Calm     65% 0.0 mm 28 W/m2
07:49 17.5 °C 10.8 °C 1015.6 hPa Calm   3.2 km/h 65% 0.0 mm 28 W/m2
07:54 17.9 °C 10.5 °C 1015.9 hPa ENE 3.2 km/h 3.2 km/h 62% 0.0 mm 30 W/m2
07:59 18.2 °C 10.8 °C 1015.6 hPa SE 1.4 km/h 3.2 km/h 62% 0.0 mm 58 W/m2
08:04 18.4 °C 11 °C 1015.6 hPa Calm   1.6 km/h 62% 0.0 mm 91 W/m2
08:09 18.6 °C 10.9 °C 1015.9 hPa Calm   3.2 km/h 61% 0.0 mm 232 W/m2
08:14 19 °C 11.1 °C 1015.9 hPa SE 1.4 km/h 3.2 km/h 60% 0.0 mm 244 W/m2
08:20 19.6 °C 11.1 °C 1015.9 hPa ESE 1.4 km/h 3.2 km/h 58% 0.0 mm 227 W/m2
08:25 20.2 °C 11.4 °C 1015.6 hPa Calm     57% 0.0 mm 100 W/m2
08:30 20.5 °C 11.4 °C 1015.9 hPa Calm     56% 0.0 mm 40 W/m2
08:35 21.3 °C 11.6 °C 1015.9 hPa ESE 1.4 km/h 3.2 km/h 54% 0.0 mm 39 W/m2
08:45 22.3 °C 11.7 °C 1015.9 hPa WNW 1.4 km/h 4.8 km/h 51% 0.0 mm 39 W/m2
08:50 22.3 °C 11.4 °C 1015.6 hPa Calm   1.6 km/h 50% 0.0 mm 39 W/m2
08:55 22.4 °C 11.8 °C 1015.6 hPa North 4.8 km/h 4.8 km/h 51% 0.0 mm 40 W/m2
09:00 23 °C 11.7 °C 1015.6 hPa Calm     49% 0.0 mm 40 W/m2
09:05 23.4 °C 11.4 °C 1015.6 hPa East 1.4 km/h 1.6 km/h 47% 0.0 mm 42 W/m2
09:10 23.6 °C 11.6 °C 1015.6 hPa North 1.4 km/h 1.6 km/h 47% 0.0 mm 90 W/m2
09:15 23.6 °C 11.9 °C 1015.6 hPa East 3.2 km/h 4.8 km/h 48% 0.0 mm 288 W/m2
09:20 23.7 °C 11.7 °C 1015.6 hPa Calm   3.2 km/h 47% 0.0 mm 418 W/m2
09:25 24.1 °C 11.4 °C 1015.6 hPa ENE 3.2 km/h 3.2 km/h 45% 0.0 mm 431 W/m2
09:30 24.2 °C 11.5 °C 1015.6 hPa East 1.4 km/h 4.8 km/h 45% 0.0 mm 448 W/m2
09:35 24.4 °C 12 °C 1015.6 hPa NE 3.2 km/h 6.4 km/h 46% 0.0 mm 461 W/m2
09:41 24.7 °C 12 °C 1015.6 hPa Calm   4.8 km/h 45% 0.0 mm 475 W/m2
09:46 24.9 °C 11.8 °C 1015.6 hPa NE 3.2 km/h 6.4 km/h 44% 0.0 mm 485 W/m2
09:51 25.2 °C 12.1 °C 1015.6 hPa ESE 3.2 km/h 4.8 km/h 44% 0.0 mm 503 W/m2
09:56 25.3 °C 11.8 °C 1015.6 hPa SW 1.4 km/h 3.2 km/h 43% 0.0 mm 62 W/m2
10:01 25.5 °C 12.4 °C 1015.6 hPa East 3.2 km/h 9.7 km/h 44% 0.0 mm 49 W/m2
10:06 25.7 °C 12.2 °C 1015.6 hPa ENE 3.2 km/h 4.8 km/h 43% 0.0 mm 534 W/m2
10:11 25.9 °C 12.4 °C 1015.2 hPa ESE 1.4 km/h 9.7 km/h 43% 0.0 mm 552 W/m2
10:16 26.1 °C 12.2 °C 1015.6 hPa East 1.4 km/h 4.8 km/h 42% 0.0 mm 564 W/m2
10:21 26.2 °C 12.3 °C 1015.2 hPa ESE 3.2 km/h 9.7 km/h 42% 0.0 mm 578 W/m2
10:31 26.3 °C 12.7 °C 1015.2 hPa East 1.4 km/h 8 km/h 43% 0.0 mm 601 W/m2
10:36 26.6 °C 12.6 °C 1015.2 hPa ENE 3.2 km/h 4.8 km/h 42% 0.0 mm 615 W/m2
10:41 26.8 °C 12.4 °C 1015.2 hPa NW 4.7 km/h 4.8 km/h 41% 0.0 mm 626 W/m2
10:46 26.9 °C 12.5 °C 1015.2 hPa ENE 4.7 km/h 8 km/h 41% 0.0 mm 638 W/m2
10:51 27.1 °C 12.7 °C 1015.2 hPa ENE 1.4 km/h 6.4 km/h 41% 0.0 mm 647 W/m2
10:56 27.4 °C 13 °C 1015.2 hPa ENE 4.7 km/h 6.4 km/h 41% 0.0 mm 656 W/m2
11:02 27.7 °C 12.5 °C 1015.2 hPa Calm   4.8 km/h 39% 0.0 mm 670 W/m2
11:07 28 °C 12.8 °C 1015.2 hPa ENE 3.2 km/h 6.4 km/h 39% 0.0 mm 679 W/m2
11:12 28.4 °C 12.7 °C 1015.2 hPa ENE 6.4 km/h 6.4 km/h 38% 0.0 mm 687 W/m2
11:17 28.8 °C 12.7 °C 1015.2 hPa SE 4.7 km/h 4.8 km/h 37% 0.0 mm 696 W/m2
11:22 29.1 °C 12.1 °C 1015.2 hPa SE 4.7 km/h 6.4 km/h 35% 0.0 mm 710 W/m2
11:27 29.3 °C 12.7 °C 1015.2 hPa Calm   3.2 km/h 36% 0.0 mm 714 W/m2
11:32 29.6 °C 12.1 °C 1015.2 hPa NE 4.7 km/h 8 km/h 34% 0.0 mm 724 W/m2
11:42 30.2 °C 11.7 °C 1014.9 hPa South 1.4 km/h 4.8 km/h 32% 0.0 mm 745 W/m2
11:47 30.6 °C 11.5 °C 1014.9 hPa SE 3.2 km/h 12.9 km/h 31% 0.0 mm 749 W/m2
11:52 30.8 °C 11.7 °C 1014.9 hPa Calm   6.4 km/h 31% 0.0 mm 761 W/m2
11:57 30.8 °C 11.7 °C 1014.9 hPa NE 4.7 km/h 12.9 km/h 31% 0.0 mm 765 W/m2
12:03 31 °C 11.4 °C 1014.9 hPa NE 4.7 km/h 4.8 km/h 30% 0.0 mm 775 W/m2
12:08 31.3 °C 11.7 °C 1014.9 hPa SE 1.4 km/h 8 km/h 30% 0.0 mm 782 W/m2
12:13 31.7 °C 11.5 °C 1014.6 hPa North 4.7 km/h 6.4 km/h 29% 0.0 mm 788 W/m2
12:18 32 °C 12.3 °C 1014.6 hPa SSW 3.2 km/h 4.8 km/h 30% 0.0 mm 798 W/m2
12:23 32.3 °C 10.9 °C 1014.6 hPa Calm   12.9 km/h 27% 0.0 mm 800 W/m2
12:28 32.3 °C 11.5 °C 1014.6 hPa ESE 1.4 km/h 1.6 km/h 28% 0.0 mm 810 W/m2
12:33 32.5 °C 11.6 °C 1014.6 hPa NNE 1.4 km/h 9.7 km/h 28% 0.0 mm 812 W/m2
12:38 32.7 °C 11.3 °C 1014.6 hPa East 11.1 km/h 14.5 km/h 27% 0.0 mm 819 W/m2
12:43 32.7 °C 10.1 °C 1014.2 hPa NE 4.7 km/h 6.4 km/h 25% 0.0 mm 823 W/m2
12:48 32.8 °C 10.2 °C 1014.6 hPa East 14.5 km/h 14.5 km/h 25% 0.0 mm 828 W/m2
12:53 32.8 °C 9.6 °C 1014.2 hPa NE 6.4 km/h 6.4 km/h 24% 0.0 mm 831 W/m2
12:58 32.9 °C 11.4 °C 1014.2 hPa NE 4.7 km/h 4.8 km/h 27% 0.0 mm 837 W/m2
13:03 33.1 °C 9.8 °C 1014.2 hPa North 1.4 km/h 4.8 km/h 24% 0.0 mm 840 W/m2
13:08 33.2 °C 11.1 °C 1014.2 hPa ENE 6.4 km/h 9.7 km/h 26% 0.0 mm 846 W/m2
13:13 33.4 °C 10.7 °C 1013.9 hPa NE 4.7 km/h 9.7 km/h 25% 0.0 mm 846 W/m2
13:18 33.6 °C 10.2 °C 1013.9 hPa SSE 3.2 km/h 4.8 km/h 24% 0.0 mm 853 W/m2
13:23 33.8 °C 10.4 °C 1013.9 hPa SE 3.2 km/h 6.4 km/h 24% 0.0 mm 858 W/m2
13:28 34 °C 9.9 °C 1013.5 hPa East 14.3 km/h 14.5 km/h 23% 0.0 mm 858 W/m2
13:33 34.2 °C 10.1 °C 1013.9 hPa ENE 4.7 km/h 6.4 km/h 23% 0.0 mm 858 W/m2
13:38 34.1 °C 10.7 °C 1013.5 hPa East 14.5 km/h 14.5 km/h 24% 0.0 mm 860 W/m2
13:43 34.2 °C 10.7 °C 1013.5 hPa ESE 6.4 km/h 11.3 km/h 24% 0.0 mm 860 W/m2
13:48 34.2 °C 11.4 °C 1013.5 hPa West 1.4 km/h 6.4 km/h 25% 0.0 mm 861 W/m2
13:53 34.4 °C 10.9 °C 1013.5 hPa Calm   6.4 km/h 24% 0.0 mm 860 W/m2
13:58 34.6 °C 11.1 °C 1013.5 hPa ENE 3.2 km/h 4.8 km/h 24% 0.0 mm 861 W/m2
14:03 34.6 °C 11.1 °C 1013.2 hPa East 6.4 km/h 9.7 km/h 24% 0.0 mm 860 W/m2
14:08 34.8 °C 10.6 °C 1013.2 hPa NNW 6.4 km/h 6.4 km/h 23% 0.0 mm 856 W/m2
14:13 35 °C 11.4 °C 1013.2 hPa ENE 1.4 km/h 9.7 km/h 24% 0.0 mm 856 W/m2
14:18 35 °C 10.8 °C 1013.2 hPa North 3.2 km/h 9.7 km/h 23% 0.0 mm 854 W/m2
14:23 35 °C 10.8 °C 1013.2 hPa NW 3.2 km/h 6.4 km/h 23% 0.0 mm 853 W/m2
14:28 35.1 °C 10.2 °C 1013.2 hPa West 4.7 km/h 9.7 km/h 22% 0.0 mm 849 W/m2
14:33 35.1 °C 10.9 °C 1013.2 hPa East 3.2 km/h 6.4 km/h 23% 0.0 mm 849 W/m2
14:38 35.2 °C 11.6 °C 1013.2 hPa ESE 3.2 km/h 9.7 km/h 24% 0.0 mm 844 W/m2
14:43 35.3 °C 11 °C 1013.2 hPa East 3.2 km/h 6.4 km/h 23% 0.0 mm 838 W/m2
14:48 35.3 °C 11 °C 1013.2 hPa East 4.7 km/h 6.4 km/h 23% 0.0 mm 837 W/m2
14:53 35.4 °C 11.8 °C 1013.2 hPa SSE 3.2 km/h 12.9 km/h 24% 0.0 mm 837 W/m2
14:58 35.7 °C 11.4 °C 1013.2 hPa SE 1.4 km/h 3.2 km/h 23% 0.0 mm 826 W/m2
15:03 35.9 °C 12.8 °C 1012.9 hPa ENE 1.4 km/h 3.2 km/h 25% 0.0 mm 830 W/m2
15:08 36.1 °C 11 °C 1012.9 hPa ESE 9.7 km/h 14.5 km/h 22% 0.0 mm 823 W/m2
15:13 36.3 °C 11.2 °C 1012.9 hPa ESE 4.7 km/h 4.8 km/h 22% 0.0 mm 817 W/m2
15:18 36.3 °C 11.2 °C 1012.9 hPa ENE 6.4 km/h 6.4 km/h 22% 0.0 mm 809 W/m2
15:23 36.3 °C 11.9 °C 1012.9 hPa ESE 3.2 km/h 9.7 km/h 23% 0.0 mm 803 W/m2
15:28 36.4 °C 11.3 °C 1012.9 hPa East 1.4 km/h 8 km/h 22% 0.0 mm 800 W/m2
15:33 36.2 °C 11.8 °C 1012.9 hPa East 1.4 km/h 4.8 km/h 23% 0.0 mm 791 W/m2
15:38 36.3 °C 11.2 °C 1012.9 hPa NE 3.2 km/h 6.4 km/h 22% 0.0 mm 784 W/m2
15:43 36.6 °C 12.1 °C 1012.9 hPa East 6.4 km/h 9.7 km/h 23% 0.0 mm 780 W/m2
15:48 36.7 °C 12.2 °C 1012.5 hPa ENE 3.2 km/h 4.8 km/h 23% 0.0 mm 770 W/m2
15:53 36.8 °C 13.5 °C 1012.5 hPa East 11.1 km/h 11.3 km/h 25% 0.0 mm 763 W/m2
15:58 36.9 °C 12.4 °C 1012.5 hPa ENE 4.7 km/h 6.4 km/h 23% 0.0 mm 754 W/m2
16:03 36.8 °C 12.3 °C 1012.5 hPa East 3.2 km/h 9.7 km/h 23% 0.0 mm 749 W/m2
16:08 36.8 °C 12.3 °C 1012.5 hPa ENE 4.7 km/h 6.4 km/h 23% 0.0 mm 740 W/m2
16:13 36.8 °C 11.6 °C 1012.5 hPa ENE 1.4 km/h 8 km/h 22% 0.0 mm 729 W/m2
16:18 36.6 °C 11.4 °C 1012.5 hPa East 6.4 km/h 11.3 km/h 22% 0.0 mm 721 W/m2
16:23 36.6 °C 12.1 °C 1012.2 hPa ESE 4.7 km/h 4.8 km/h 23% 0.0 mm 712 W/m2
16:28 36.8 °C 12.9 °C 1012.2 hPa North 1.4 km/h 16.1 km/h 24% 0.0 mm 700 W/m2
16:33 36.8 °C 12.3 °C 1012.2 hPa NNE 6.4 km/h 11.3 km/h 23% 0.0 mm 689 W/m2
16:38 36.9 °C 13 °C 1012.2 hPa East 3.2 km/h 12.9 km/h 24% 0.0 mm 680 W/m2
16:43 37.2 °C 12.6 °C 1012.2 hPa NE 1.4 km/h 3.2 km/h 23% 0.0 mm 673 W/m2
16:48 37.1 °C 12.5 °C 1012.2 hPa ENE 3.2 km/h 11.3 km/h 23% 0.0 mm 666 W/m2
16:53 37.2 °C 12.6 °C 1012.2 hPa East 6.4 km/h 6.4 km/h 23% 0.0 mm 666 W/m2
16:58 37.2 °C 11.9 °C 1012.2 hPa SSE 1.4 km/h 11.3 km/h 22% 0.0 mm 656 W/m2
17:03 37.3 °C 12 °C 1012.2 hPa West 1.4 km/h 3.2 km/h 22% 0.0 mm 640 W/m2
17:08 37.4 °C 13.4 °C 1012.2 hPa Calm   3.2 km/h 24% 0.0 mm 635 W/m2
17:13 37.3 °C 12.7 °C 1012.2 hPa ESE 3.2 km/h 4.8 km/h 23% 0.0 mm 615 W/m2
17:18 37.2 °C 11.2 °C 1012.2 hPa Calm   4.8 km/h 21% 0.0 mm 599 W/m2
17:23 37.2 °C 12.6 °C 1012.2 hPa South 1.4 km/h 4.8 km/h 23% 0.0 mm 578 W/m2
17:28 37.3 °C 11.3 °C 1012.2 hPa ESE 1.4 km/h 6.4 km/h 21% 0.0 mm 566 W/m2
17:33 37.5 °C 11.5 °C 1012.2 hPa ESE 1.4 km/h 4.8 km/h 21% 0.0 mm 555 W/m2
17:38 37.6 °C 12.9 °C 1011.9 hPa Calm   4.8 km/h 23% 0.0 mm 541 W/m2
17:43 37.5 °C 12.2 °C 1011.9 hPa WNW 4.7 km/h 6.4 km/h 22% 0.0 mm 527 W/m2
17:48 37.3 °C 12 °C 1011.9 hPa ENE 1.4 km/h 1.6 km/h 22% 0.0 mm 513 W/m2
17:53 37.2 °C 11.9 °C 1011.9 hPa ESE 1.4 km/h 11.3 km/h 22% 0.0 mm 499 W/m2
17:58 37.4 °C 12.1 °C 1011.9 hPa SSE 3.2 km/h 3.2 km/h 22% 0.0 mm 489 W/m2
18:03 37.6 °C 12.3 °C 1011.9 hPa ENE 1.4 km/h 11.3 km/h 22% 0.0 mm 476 W/m2
18:08 37.6 °C 10.8 °C 1011.9 hPa NE 1.4 km/h 4.8 km/h 20% 0.0 mm 462 W/m2
18:13 37.6 °C 11.6 °C 1011.5 hPa ENE 1.4 km/h 9.7 km/h 21% 0.0 mm 446 W/m2
18:18 37.5 °C 11.5 °C 1011.5 hPa West 1.4 km/h 3.2 km/h 21% 0.0 mm 432 W/m2
18:23 37.5 °C 12.2 °C 1011.5 hPa SE 1.4 km/h 4.8 km/h 22% 0.0 mm 418 W/m2
18:28 37.6 °C 12.3 °C 1011.5 hPa Calm   3.2 km/h 22% 0.0 mm 408 W/m2
18:33 37.7 °C 11.6 °C 1011.5 hPa Calm   1.6 km/h 21% 0.0 mm 396 W/m2
18:38 37.8 °C 11.7 °C 1011.5 hPa Calm   1.6 km/h 21% 0.0 mm 380 W/m2
18:43 37.7 °C 12.3 °C 1011.5 hPa NE 1.4 km/h 3.2 km/h 22% 0.0 mm 364 W/m2
18:48 37.6 °C 12.3 °C 1011.2 hPa SE 3.2 km/h 4.8 km/h 22% 0.0 mm 334 W/m2
18:53 37.5 °C 12.2 °C 1011.5 hPa ENE 1.4 km/h 3.2 km/h 22% 0.0 mm 306 W/m2
18:58 37.5 °C 12.9 °C 1011.2 hPa ESE 3.2 km/h 3.2 km/h 23% 0.0 mm 274 W/m2
19:03 37.3 °C 14 °C 1011.2 hPa East 3.2 km/h 3.2 km/h 25% 0.0 mm 257 W/m2
19:08 37.2 °C 14.5 °C 1011.2 hPa Calm   3.2 km/h 26% 0.0 mm 236 W/m2
19:13 36.9 °C 13.6 °C 1011.2 hPa Calm     25% 0.0 mm 214 W/m2
19:18 36.7 °C 14.1 °C 1011.2 hPa Calm   1.6 km/h 26% 0.0 mm 197 W/m2
19:23 36.4 °C 15 °C 1011.2 hPa Calm     28% 0.0 mm 185 W/m2
19:28 36.2 °C 13.6 °C 1011.2 hPa ESE 1.4 km/h 3.2 km/h 26% 0.0 mm 183 W/m2
19:33 36.2 °C 14.8 °C 1011.2 hPa ESE 1.4 km/h 3.2 km/h 28% 0.0 mm 190 W/m2
19:38 35.9 °C 14.5 °C 1011.2 hPa Calm   1.6 km/h 28% 0.0 mm 192 W/m2
19:43 35.6 °C 14.8 °C 1011.2 hPa Calm     29% 0.0 mm 165 W/m2
19:48 35.2 °C 14.5 °C 1011.2 hPa Calm   1.6 km/h 29% 0.0 mm 127 W/m2
19:53 35.1 °C 14.9 °C 1011.2 hPa SSE 1.4 km/h 3.2 km/h 30% 0.0 mm 113 W/m2
19:58 34.7 °C 15.1 °C 1011.2 hPa SSE 1.4 km/h 3.2 km/h 31% 0.0 mm 69 W/m2
20:03 34.5 °C 14.4 °C 1011.2 hPa SSE 1.4 km/h 3.2 km/h 30% 0.0 mm 63 W/m2
20:08 34.2 °C 14.7 °C 1011.2 hPa SSE 1.4 km/h 3.2 km/h 31% 0.0 mm 70 W/m2
20:13 33.8 °C 14.8 °C 1011.2 hPa SSE 3.2 km/h 3.2 km/h 32% 0.0 mm 42 W/m2
20:18 33.4 °C 14.5 °C 1011.2 hPa Calm   1.6 km/h 32% 0.0 mm 65 W/m2
20:23 33.2 °C 14.3 °C 1011.2 hPa Calm   3.2 km/h 32% 0.0 mm 69 W/m2
20:28 33.1 °C 14.7 °C 1011.2 hPa SSE 1.4 km/h 3.2 km/h 33% 0.0 mm 60 W/m2
20:33 32.8 °C 14.9 °C 1011.2 hPa Calm   1.6 km/h 34% 0.0 mm 46 W/m2
20:38 32.5 °C 14.1 °C 1011.2 hPa Calm     33% 0.0 mm 26 W/m2
20:43 32.2 °C 14.8 °C 1011.2 hPa SSE 1.4 km/h 1.6 km/h 35% 0.0 mm 25 W/m2
20:48 31.9 °C 14.5 °C 1011.2 hPa SSE 1.4 km/h 3.2 km/h 35% 0.0 mm 19 W/m2
20:53 31.4 °C 14.5 °C 1011.2 hPa SSE 1.4 km/h 3.2 km/h 36% 0.0 mm 18 W/m2
20:58 31.1 °C 14.3 °C 1011.2 hPa Calm     36% 0.0 mm 14 W/m2
21:03 30.6 °C 14.2 °C 1011.5 hPa Calm     37% 0.0 mm 11 W/m2
21:08 30.1 °C 13.8 °C 1011.5 hPa Calm     37% 0.0 mm 7 W/m2
21:13 29.8 °C 14 °C 1011.5 hPa Calm     38% 0.0 mm 5 W/m2
21:18 29.6 °C 14.2 °C 1011.5 hPa Calm     39% 0.0 mm 0 W/m2
21:23 29.2 °C 13.8 °C 1011.5 hPa Calm     39% 0.0 mm 0 W/m2
21:28 28.8 °C 13.9 °C 1011.5 hPa Calm     40% 0.0 mm 0 W/m2
21:33 28.5 °C 13.6 °C 1011.5 hPa Calm     40% 0.0 mm 0 W/m2
21:38 28.2 °C 13.7 °C 1011.9 hPa Calm   1.6 km/h 41% 0.0 mm 0 W/m2
21:43 27.9 °C 13.8 °C 1011.9 hPa Calm     42% 0.0 mm 0 W/m2
21:48 27.7 °C 13.6 °C 1011.9 hPa Calm     42% 0.0 mm 0 W/m2
21:54 27.4 °C 13.7 °C 1011.9 hPa Calm     43% 0.0 mm 0 W/m2
21:59 27.2 °C 13.5 °C 1011.9 hPa Calm     43% 0.0 mm 0 W/m2
22:04 26.9 °C 13.3 °C 1011.5 hPa SSE 1.4 km/h 1.6 km/h 43% 0.0 mm 0 W/m2
22:09 26.7 °C 13.4 °C 1011.5 hPa Calm     44% 0.0 mm 0 W/m2
22:14 26.6 °C 13.7 °C 1011.5 hPa Calm     45% 0.0 mm 0 W/m2
22:19 26.3 °C 13.4 °C 1011.5 hPa Calm     45% 0.0 mm 0 W/m2
22:24 26.1 °C 13.2 °C 1011.5 hPa Calm   1.6 km/h 45% 0.0 mm 0 W/m2
22:29 26 °C 13.5 °C 1011.5 hPa Calm     46% 0.0 mm 0 W/m2
22:34 25.8 °C 13.6 °C 1011.5 hPa Calm     47% 0.0 mm 0 W/m2
22:39 25.6 °C 13.5 °C 1011.5 hPa Calm     47% 0.0 mm 0 W/m2
22:44 25.4 °C 13.3 °C 1011.5 hPa Calm     47% 0.0 mm 0 W/m2
22:49 25.3 °C 13.5 °C 1011.5 hPa Calm     48% 0.0 mm 0 W/m2
22:54 25.1 °C 13.6 °C 1011.9 hPa Calm     49% 0.0 mm 0 W/m2
22:59 25 °C 13.5 °C 1011.9 hPa Calm     49% 0.0 mm 0 W/m2
23:04 24.9 °C 13.8 °C 1011.9 hPa Calm     50% 0.0 mm 0 W/m2
23:09 24.8 °C 13.7 °C 1011.9 hPa Calm     50% 0.0 mm 0 W/m2
23:14 24.7 °C 13.6 °C 1011.9 hPa Calm     50% 0.0 mm 0 W/m2
23:19 24.6 °C 13.5 °C 1011.9 hPa Calm     50% 0.0 mm 0 W/m2
23:24 24.5 °C 13.7 °C 1011.9 hPa Calm     51% 0.0 mm 0 W/m2
23:29 24.4 °C 13.6 °C 1011.9 hPa Calm     51% 0.0 mm 0 W/m2
23:34 24.3 °C 13.5 °C 1011.9 hPa Calm     51% 0.0 mm 0 W/m2
23:39 24.2 °C 13.4 °C 1011.9 hPa Calm     51% 0.0 mm 0 W/m2
23:44 24.1 °C 13.3 °C 1012.2 hPa Calm     51% 0.0 mm 0 W/m2
23:49 23.9 °C 13.4 °C 1011.9 hPa Calm     52% 0.0 mm 0 W/m2
23:54 23.8 °C 13.4 °C 1011.9 hPa Calm     52% 0.0 mm 0 W/m2
23:59 23.7 °C 13.6 °C 1012.2 hPa Calm     53% 0.0 mm 0 W/m2
Juneau County Weather
Compliments of Weather Underground - 4 mb